Regional Weather Roundup
Issued by NWS San Diego, CA

Home | Current Version | Previous Version | Text Only | Print | Product List | Glossary On
Versions: 1 2 3 4 5 6 7 8 9 10 11 12 13 14 15 16 17 18 19 20 21 22 23 24 25 26 27
000
ASUS46 KSGX 261111
RWRSGX

SAN DIEGO HOURLY WEATHER ROUNDUP
NATIONAL WEATHER SERVICE SAN DIEGO CA
400 AM PDT THU MAY 26 2016

NOTE: "FAIR" INDICATES FEW OR NO CLOUDS BELOW 12,000 FEET WITH NO
SIGNIFICANT WEATHER AND/OR OBSTRUCTIONS TO VISIBILITY.

CAZ042-043-060-061-PZZ750-775-261200-

GREATER SAN DIEGO AREA

CITY           SKY/WX    TMP DP  RH WIND       PRES   REMARKS
LINDBERGH FLD  MOCLDY    63  52  67 W6        30.07F
POINT LOMA       N/A     58  50  75 W6          N/A
NATIONAL CITY    N/A     61  53  75 SE1       30.07S
CHULA VISTA      N/A     58  53  84 E2        29.99F
IMPERIAL BEACH CLOUDY    63  52  67 W10       30.07S
BROWN FIELD    PTCLDY    53  49  86 E3        30.06F
MIRAMAR MCAS   CLOUDY    60  51  72 E5        30.06S
MONTGOMERY FLD CLOUDY    58  50  75 E6        30.06F

$$

NORTH SAN DIEGO COUNTY

CITY           SKY/WX    TMP DP  RH WIND       PRES   REMARKS
CAMP PENDLETON CLOUDY    54  53  97 CALM      30.06S FOG
OCEANSIDE AP   CLOUDY    57  50  77 NE5       30.05F
OCEANSIDE HBR    N/A     58  54  86 NE3       30.08S
VISTA            N/A     57  53  84 CALM      30.04S
CARLSBAD       CLOUDY    59  54  83 SE6       30.05S
DEL MAR          N/A     60  54  82 CALM      30.09S
LA JOLLA SCRIP   N/A     60  54  80 S1        30.05F
FALLBROOK        N/A     56  54  92 CALM      30.04S
ESCONDIDO        N/A     55  49  81 E3        30.08S
SAN MARCOS       N/A     55  46  71 CALM      30.05S
POWAY            N/A     53  49  87 CALM      30.09S

$$

EAST SAN DIEGO COUNTY

CITY           SKY/WX    TMP DP  RH WIND       PRES   REMARKS
RAMONA         CLOUDY    48  43  82 SE3       30.07S
SANTEE LAKES     N/A     53  50  90 CALM      30.07S
LA MESA          N/A     56  51  83 CALM      30.00S
DESCANSO N       N/A     40  38  92 W2        29.99R
MT. LAGUNA OBS   N/A     39  35  86 NW3       29.65S
CAMPO            N/A     40  37  89 CALM      30.03S

$$

ORANGE COUNTY AND THE LOS ANGELES BASIN

CITY           SKY/WX    TMP DP  RH WIND       PRES   REMARKS
JOHN WAYNE AP  PTCLDY    58  51  78 E6        30.04F
LAKE FOREST FR   N/A     53  46  76 CALM      29.94F
HUNTINGTON BCH   N/A     56  54  93 CALM      30.06F
LOS ALAMITOS   CLOUDY    58  53  85 E3        30.04S
FULLERTON      CLEAR     58  52  80 E5        30.04F
LONG BEACH     MOCLDY    59  52  77 NE3       30.04F
L.A. AP        PTCLDY    56  52  86 E3        30.04F
L.A. DOWNTOWN  CLEAR     59  52  77 CALM      30.04F

$$

THE INLAND EMPIRE

CITY           SKY/WX    TMP DP  RH WIND       PRES   REMARKS
CHINO          CLEAR     52  49  89 N3        30.06F
ONTARIO        MOCLDY    53  48  83 W6        30.05S
RIVERSIDE AP   MOCLDY    54  48  80 CALM      30.06R
MORENO VALLEY    N/A     51  50  96 CALM      28.17S
MARCH ARB      CLEAR     50  50  99 SE5       30.05S
HORSETHIEF CYN   N/A     48  39  70 CALM      30.08S
PERRIS           N/A     51  50  97 S3        30.06S
HEMET EAST       N/A     49  41  76 CALM      29.95F
FRENCH VALLEY  PTSUNNY   52  46  82 CALM      30.06S
TEMECULA         N/A     53  50  89 CALM      30.04S

$$

SAN BERNARDINO AND RIVERSIDE COUNTY MOUNTAINS

CITY           SKY/WX    TMP DP  RH WIND       PRES   REMARKS
BIG BEAR AP    CLEAR     32  30  93 W5        30.10F WCI  27
ANGELUS OAKS     N/A     38  34  84 CALM      30.00S
PINE COVE        N/A     39  37  92 N6        30.05F WCI  35

$$

SOUTHERN DESERT INCLUDING THE COACHELLA VALLEY

CITY           SKY/WX    TMP DP  RH WIND       PRES   REMARKS
PALM SPRINGS     N/A     66  43  43 MISG      29.91R
THOUSAND PALMS   N/A     64  43  47 NW21      29.89S
PALM DESERT      N/A     62  45  54 CALM      28.38S
THERMAL        CLEAR     66  42  41 NW10      29.89R
BLYTHE         CLEAR     61  44  53 NW6       29.87S
IMPERIAL AP    CLEAR     59  42  53 W8        29.89S
EL CENTRO NAS  CLEAR     63  40  42 W14       29.92S
YUMA AZ        CLEAR     60  43  53 S5        29.90F

$$

UPPER DESERT

CITY           SKY/WX    TMP DP  RH WIND       PRES   REMARKS
VICTORVILLE AP CLEAR     52  39  62 CALM      30.01S
HESPERIA         N/A     48  41  76 W3        30.13S
PALMDALE       CLEAR     56  42  59 SW9       30.02S
LANCASTER      CLEAR     58  41  53 W16       30.00F
EDWARDS AFB    CLEAR     55  41  60 S9        29.98S
DAGGETT        CLEAR     61  40  45 W8        29.96F
29 PALMS N     CLEAR     60  40  47 N9        30.01S
NEEDLES        CLEAR     68  38  33 SW7       29.86R

$$

REGIONAL REPORTS

CITY           SKY/WX    TMP DP  RH WIND       PRES   REMARKS
SANTA BARBARA  CLEAR     54  47  77 NE3       30.01F
SANDBERG       CLEAR     51  40  65 N14G29    30.08S
LAS VEGAS NV   CLEAR     63  33  32 SW5       29.86R
PHOENIX AZ     CLEAR     70  35  27 W3        29.88S
TIJUANA        CLOUDY    57  48  72 CALM      30.09F
ENSENADA NW      N/A     58  32  38 E3        30.05F

$$

OFFSHORE ISLANDS

CITY           SKY/WX    TMP DP  RH WIND       PRES   REMARKS
CATALINA ARPT  PTCLDY    51  50  96 E8        30.04F
SAN NICOLAS IS CLOUDY   N/A N/A N/A NW25G31   30.04F

$$

MARINE AND OFFSHORE BUOY REPORTS

STATION/POSITION SKY/WX   TEMP    WIND        PRES    SWELL
                          AIR SEA DIR/SP/G            HT/PER/DIR
                          (F)     (DEG/KT/KT) (MB)    (FT/S/D)
TANNER BANKS               59 62  300/ 19/ 25 1018.1F   2/ 70/15
S CLEMENTE BASIN           59 62  280/ 12/ 14 1017.6F   3/290/ 7
SAN NICOLAS IS.               60                N/A     2/220/14
SO. S. ROSA ISLA           56 58  310/ 25/ 29 1017.1F   2/320/ 9
W. S. BARBARA CH           55 54  320/ 23/ 29 1017.0F   2/310/10
M. S. BARBARA CH           58 58  310/ 14/ 16 1017.3F
S. MONICA BASIN            59 64  350/ 10/ 12 1017.0F   3/260/ 7
S PEDRO CHANNEL               63                N/A
OCEANSIDE OFFSHR              65                N/A     2/210/15
TORREY PINES OTR              65                N/A     2/200/14
LA JOLLA 1                 61 68  240/  7/ 10 1017.9F
SAN DIEGO BAY                 69              1018.3F
POINT LOMA SOUTH              65                N/A     2/210/14

$$





USA.gov is the U.S. government's official web portal to all federal, state and local government web resources and services.